Powrót do katalogu

CZ-6A DEB

AktywnyPO
NORAD 61827·DEBRIS·🇨🇳 China

Wystrzelony Aug 6, 2024 z Taiyuan Satellite Launch Center

Loading…

Następne Przeloty (najbliższe 24 godziny)

TLE

ŚwieżeSource: Space-Track

Epoka: Sep 14, 2026, 09:40 UTC

1 61827U 24140ACT 26257.40342311  .00001988  00000-0  10459-2 0  9992
2 61827  88.8551 253.6063 0099704 309.2379  49.9988 14.11210873103221

Śledź CZ-6A DEB w czasie rzeczywistym z AllMySat

Download on the App Store